Sigfox identifier Datetime Temperature Humidity SNR
002EB234 2019-06-03 15:28:51 17.1 45 16.6
002EB234 2019-06-03 14:23:18 16.3 46 16.7
002EB234 2019-06-03 13:17:43 15.2 46 16.8
002EB234 2019-06-03 12:12:10 13.9 48 17
002EB234 2019-06-03 11:06:32 12.6 45 17.2
002EB234 2019-06-03 10:00:55 11.6 44 17.4
002EB234 2019-06-03 08:55:20 10.9 42 17.3
002EB234 2019-06-03 07:49:43 10.7 41 17.1
002EB234 2019-06-03 06:44:07 11.1 40 17.1
002EB234 2019-06-03 05:38:32 11.8 39 17.1
002EB234 2019-06-03 04:32:54 12.8 40 17.3
002EB234 2019-06-03 03:27:19 13.8 40 17.3
002EB234 2019-06-03 02:21:43 14.8 41 17.2
002EB234 2019-06-03 01:16:08 15.9 42 17.2
002EB234 2019-06-03 00:10:32 16.8 43 17.3
002EB234 2019-06-02 23:04:58 17.5 44 17.3
002EB234 2019-06-02 21:59:23 17.7 45 17.3
002EB234 2019-06-02 20:53:48 17.7 45 17.3
002EB234 2019-06-02 19:48:14 17.2 45 17.3
002EB234 2019-06-02 18:42:40 16.3 45 17.3
002EB234 2019-06-02 17:37:07 15.4 44 17.3
002EB234 2019-06-02 16:31:32 14.3 43 17.3
002EB234 2019-06-02 15:25:58 13.7 42 17.3
002EB234 2019-06-02 14:20:22 13.3 41 17.2
002EB234 2019-06-02 13:14:45 13 40 17.1
002EB234 2019-06-02 12:09:09 13 40 17.4
002EB234 2019-06-02 11:03:33 13 40 19.7
002EB234 2019-06-02 09:57:57 12.8 40 19.7
002EB234 2019-06-02 08:52:21 12.8 39 19.6
002EB234 2019-06-02 07:46:45 13 39 19.5
002EB234 2019-06-02 06:41:08 13.3 39 19.5
002EB234 2019-06-02 05:35:29 13.4 38 19.5
002EB234 2019-06-02 04:29:52 13.7 38 19.5
002EB234 2019-06-02 03:24:16 14.1 38 19.6
002EB234 2019-06-02 02:18:40 14.5 37 19.6
002EB234 2019-06-02 01:13:05 15.2 37 19.5
002EB234 2019-06-02 00:07:30 15.8 37 19.5
002EB234 2019-06-01 23:01:57 16.7 37 19.4
002EB234 2019-06-01 21:56:23 17.3 38 19.4
002EB234 2019-06-01 20:50:49 18.1 38 19.4
002EB234 2019-06-01 19:45:17 18.8 39 19.3
002EB234 2019-06-01 18:39:43 19 39 19.2
002EB234 2019-06-01 17:34:07 19 39 20.1
002EB234 2019-06-01 16:28:33 18.7 39 21.1
002EB234 2019-06-01 15:22:59 18.5 39 22.3
002EB234 2019-06-01 14:17:26 17.9 38 22.5
002EB234 2019-06-01 13:11:51 17.7 38 23.4
002EB234 2019-06-01 12:06:16 17.6 37 24.1
002EB234 2019-06-01 11:00:45 17.7 36 24.7
002EB234 2019-06-01 09:55:06 18.1 35 25
002EB234 2019-06-01 08:49:32 18.7 36 25.2
002EB234 2019-06-01 07:43:58 18.8 36 25.2
002EB234 2019-06-01 06:38:23 18.9 35 25.7
002EB234 2019-06-01 05:32:49 19 35 26
002EB234 2019-06-01 04:27:13 19 35 26.4
002EB234 2019-06-01 03:21:39 19 35 26.8
002EB234 2019-06-01 02:16:03 19 35 27.1
002EB234 2019-06-01 01:10:28 19 35 27.4
002EB234 2019-06-01 00:04:53 19.1 35 27.5
002EB234 2019-05-31 22:59:18 19.4 35 27.8
002EB234 2019-05-31 21:53:42 19.6 36 27.9
002EB234 2019-05-31 20:48:07 19.9 37 28
002EB234 2019-05-31 19:42:31 20.2 37 28.1
002EB234 2019-05-31 18:36:54 20.3 38 28.2
002EB234 2019-05-31 17:31:19 20.8 38 28.3
002EB234 2019-05-31 16:25:44 21.3 40 28.6
002EB234 2019-05-31 15:20:10 21.1 40 28.7
002EB234 2019-05-31 14:14:36 21 40 28.7
002EB234 2019-05-31 13:09:00 21.1 40 28.6
002EB234 2019-05-31 12:03:26 21.1 40 28.5
002EB234 2019-05-31 10:57:52 21.1 39 28.6
002EB234 2019-05-31 09:52:18 20.9 39 28.6
002EB234 2019-05-31 08:46:45 20.9 38 28.6
002EB234 2019-05-31 07:41:11 20.7 38 28.5
002EB234 2019-05-31 06:35:35 20.7 38 28.4
002EB234 2019-05-31 05:29:59 20.7 38 28.4
002EB234 2019-05-31 04:24:24 20.7 38 28.4
002EB234 2019-05-31 03:18:50 20.7 38 28.2
002EB234 2019-05-31 02:13:16 20.6 38 28.3
002EB234 2019-05-31 01:07:42 20.6 39 28.2
002EB234 2019-05-31 00:02:08 20.6 39 28.2
002EB234 2019-05-30 22:56:36 20.5 39 28.2
002EB234 2019-05-30 21:51:02 20.5 39 28
002EB234 2019-05-30 20:45:28 20.4 39 28
002EB234 2019-05-30 19:39:55 20.4 39 27.9
002EB234 2019-05-30 18:34:21 20.3 40 28.1
002EB234 2019-05-30 17:28:48 20.3 40 28.1
002EB234 2019-05-30 16:23:14 20.5 40 28
002EB234 2019-05-30 15:17:40 20.4 41 28
002EB234 2019-05-30 14:12:07 20.5 41 28
002EB234 2019-05-30 13:06:33 20.6 42 27.9
002EB234 2019-05-30 12:01:01 20.6 42 28.1
002EB234 2019-05-30 10:55:27 20.7 42 28.2
002EB234 2019-05-30 09:49:53 20.7 43 28.2
002EB234 2019-05-30 08:44:21 20.6 43 28.2
002EB234 2019-05-30 07:38:46 20.6 43 28.1
002EB234 2019-05-30 06:33:13 20.7 43 28.1
002EB234 2019-05-30 05:27:40 20.9 44 28.2
002EB234 2019-05-30 04:22:06 20.8 44 28.3
002EB234 2019-05-30 03:16:32 20.8 44 28.4
002EB234 2019-05-30 02:10:59 20.8 45 28.4
002EB234 2019-05-30 01:05:25 20.9 45 28.6
002EB234 2019-05-29 23:59:51 21 46 28.6
002EB234 2019-05-29 22:54:17 21.1 46 28.6
002EB234 2019-05-29 21:48:43 21 47 28.6
002EB234 2019-05-29 20:43:10 21.1 47 28.5
002EB234 2019-05-29 19:37:35 21 47 28.5
002EB234 2019-05-29 18:31:57 21.2 48 28.6
002EB234 2019-05-29 17:26:21 21.3 49 28.5
002EB234 2019-05-29 16:20:46 21.3 50 28.5
002EB234 2019-05-29 15:15:12 21 49 28.4
002EB234 2019-05-29 14:09:37 21 49 28.4
002EB234 2019-05-29 13:04:02 21 49 28.2
002EB234 2019-05-29 11:58:29 21.1 49 28
002EB234 2019-05-29 10:52:56 21.1 48 27.9
002EB234 2019-05-29 09:47:21 21.1 48 27.7
002EB234 2019-05-29 08:41:48 21 48 27.8
002EB234 2019-05-29 07:36:15 21.1 47 27.6
002EB234 2019-05-29 06:30:43 21.1 47 27.3
002EB234 2019-05-29 05:25:10 21.1 47 27.2
002EB234 2019-05-29 04:19:38 21.1 47 26.9
002EB234 2019-05-29 03:14:04 21.1 47 26.7
002EB234 2019-05-29 02:08:32 21.1 47 26.4
002EB234 2019-05-29 01:02:59 21.1 47 26
002EB234 2019-05-28 23:57:29 21.2 47 25.6
002EB234 2019-05-28 22:51:58 21.3 47 25.1
002EB234 2019-05-28 21:46:25 21.2 47 24.5
002EB234 2019-05-28 20:40:53 21.3 47 23.8
002EB234 2019-05-28 19:35:19 21.3 47 23.4
002EB234 2019-05-28 18:29:44 21.2 47 23.1
002EB234 2019-05-28 17:24:12 21.3 47 22.6
002EB234 2019-05-28 16:18:40 21.3 47 22.2
002EB234 2019-05-28 15:13:07 21.2 46 21.2
002EB234 2019-05-28 14:07:35 21 46 21.3
002EB234 2019-05-28 13:02:02 21 46 21.5
002EB234 2019-05-28 11:56:31 21.1 45 21.5
002EB234 2019-05-28 10:51:00 21 45 21.7
002EB234 2019-05-28 09:45:27 20.9 45 21.7
002EB234 2019-05-28 08:39:56 20.9 44 21.7
002EB234 2019-05-28 07:34:24 20.9 44 21.9
002EB234 2019-05-28 06:28:49 20.9 44 20.1
002EB234 2019-05-28 05:23:19 21 44 19.9
002EB234 2019-05-28 04:17:45 21 44 19.7
002EB234 2019-05-28 03:12:12 21.1 44 19.4
002EB234 2019-05-28 02:06:37 21.1 44 19.7
002EB234 2019-05-28 01:00:59 21 44 19.9
002EB234 2019-05-27 23:55:23 21 44 19.7
002EB234 2019-05-27 22:49:46 21.1 44 19.1
002EB234 2019-05-27 21:44:10 21.2 44 20.1
002EB234 2019-05-27 20:38:35 21.3 44 21.1
002EB234 2019-05-27 19:32:57 21.2 44 20.8
002EB234 2019-05-27 18:27:21 21.3 45 18.3
002EB234 2019-05-27 17:21:46 21.5 45 19.6
002EB234 2019-05-27 16:16:08 21.5 46 22.2
002EB234 2019-05-27 15:10:31 21.4 51 0